| time (UTC) | temp C | wind direction | speed KPH | gust KPH | rain 1hr cm | rain 24hr cm | rain mn cm | humidity % | barometer mb |
| 20260510093958 | 2 | 294 | 0.0 | 1.6 | 0.00 | 0.28 | 0.00 | 82 | 1010.0 |
| 20260510092537 | 2 | 317 | 0.0 | 0.0 | 0.00 | 0.28 | 0.00 | 82 | 1009.6 |
| 20260510090959 | 2 | 298 | 0.0 | 0.0 | 0.00 | 0.28 | 0.00 | 81 | 1009.6 |
| 20260510085411 | 2 | 313 | 0.0 | 0.0 | 0.00 | 0.28 | 0.00 | 81 | 1009.2 |
| 20260510083904 | 2 | 337 | 0.0 | 0.0 | 0.00 | 0.28 | 0.00 | 81 | 1009.0 |
| 20260510082353 | 2 | 313 | 0.0 | 0.0 | 0.00 | 0.28 | 0.00 | 80 | 1009.0 |
| 20260510080905 | 3 | 301 | 0.0 | 1.6 | 0.00 | 0.28 | 0.00 | 79 | 1008.9 |
| 20260510075356 | 3 | 306 | 0.0 | 0.0 | 0.00 | 0.28 | 0.00 | 78 | 1008.7 |
| 20260510073935 | 3 | 304 | 0.0 | 0.0 | 0.00 | 0.28 | 0.00 | 77 | 1008.7 |
| 20260510072438 | 4 | 312 | 0.0 | 1.6 | 0.00 | 0.28 | 0.00 | 76 | 1008.5 |
| 20260510070854 | 4 | 315 | 0.0 | 3.2 | 0.00 | 0.28 | 0.00 | 74 | 1008.5 |
| 20260510065306 | 5 | 321 | 0.0 | 0.0 | 0.00 | 0.28 | 0.00 | 73 | 1008.5 |
| 20260510063822 | 5 | 325 | 0.0 | 3.2 | 0.00 | 0.28 | 0.00 | 73 | 1008.5 |
| 20260510062353 | 5 | 320 | 1.6 | 9.7 | 0.00 | 0.28 | 0.00 | 72 | 1008.5 |
| 20260510060929 | 5 | 307 | 0.0 | 3.2 | 0.00 | 0.28 | 0.00 | 71 | 1008.2 |
| 20260510053853 | 6 | 330 | 1.6 | 11.3 | 0.00 | 0.28 | 0.00 | 71 | 1007.9 |
| 20260510052348 | 6 | 342 | 0.0 | 1.6 | 0.00 | 0.28 | 0.00 | 72 | 1007.6 |
| 20260510050807 | 7 | 302 | 0.0 | 0.0 | 0.00 | 0.28 | 0.00 | 72 | 1007.3 |
| 20260510043708 | 7 | 320 | 0.0 | 0.0 | 0.00 | 0.28 | 0.00 | 75 | 1006.8 |
| 20260510042218 | 7 | 329 | 0.0 | 0.0 | 0.00 | 0.28 | 0.00 | 75 | 1006.9 |
| 20260510040742 | 7 | 280 | 1.6 | 8.0 | 0.00 | 0.28 | 0.00 | 76 | 1007.1 |
| 20260510035321 | 7 | 304 | 0.0 | 0.0 | 0.00 | 0.28 | 0.28 | 77 | 1006.5 |
| 20260510033744 | 8 | 307 | 0.0 | 0.0 | 0.00 | 0.28 | 0.28 | 77 | 1006.2 |
| 20260510032239 | 8 | 311 | 0.0 | 0.0 | 0.00 | 0.28 | 0.28 | 77 | 1006.1 |
| 20260510030730 | 8 | 12 | 0.0 | 0.0 | 0.00 | 0.28 | 0.28 | 77 | 1005.7 |
| 20260510025219 | 8 | 302 | 0.0 | 1.6 | 0.00 | 0.28 | 0.28 | 77 | 1005.6 |
| 20260510023747 | 9 | 313 | 0.0 | 1.6 | 0.00 | 0.28 | 0.28 | 76 | 1005.2 |
| 20260510020638 | 10 | 349 | 4.8 | 14.5 | 0.00 | 0.28 | 0.28 | 82 | 1005.1 |
| 20260510015143 | 10 | 346 | 6.4 | 16.1 | 0.00 | 0.28 | 0.28 | 86 | 1004.7 |
| 20260510013606 | 11 | 260 | 1.6 | 12.9 | 0.00 | 0.28 | 0.28 | 88 | 1004.4 |
| 20260510012135 | 11 | 267 | 1.6 | 12.9 | 0.00 | 0.28 | 0.28 | 87 | 1003.7 |
| 20260510010549 | 11 | 228 | 0.0 | 0.0 | 0.00 | 0.28 | 0.28 | 87 | 1003.4 |
| 20260510005034 | 11 | 196 | 1.6 | 4.8 | 0.00 | 0.28 | 0.28 | 87 | 1002.7 |
| 20260510003513 | 11 | 219 | 1.6 | 6.4 | 0.00 | 0.28 | 0.28 | 86 | 1002.5 |
| 20260510001932 | 11 | 200 | 1.6 | 6.4 | 0.00 | 0.28 | 0.28 | 85 | 1002.5 |
| 20260509234815 | 12 | 194 | 4.8 | 9.7 | 0.00 | 0.28 | 0.28 | 84 | 1002.3 |
| 20260509233301 | 12 | 146 | 6.4 | 16.1 | 0.00 | 0.28 | 0.28 | 82 | 1002.1 |
| 20260509231821 | 12 | 200 | 4.8 | 12.9 | 0.00 | 0.28 | 0.28 | 83 | 1001.7 |
| 20260509224605 | 12 | 228 | 6.4 | 14.5 | 0.00 | 0.28 | 0.28 | 83 | 1001.1 |
| 20260509223029 | 13 | 193 | 8.0 | 16.1 | 0.00 | 0.28 | 0.28 | 83 | 1001.0 |
| 20260509215919 | 13 | 195 | 9.7 | 22.5 | 0.00 | 0.28 | 0.28 | 85 | 1000.9 |
| 20260509214340 | 13 | 223 | 8.0 | 19.3 | 0.00 | 0.28 | 0.28 | 87 | 1001.0 |
| 20260509212915 | 12 | 184 | 11.3 | 30.6 | 0.08 | 0.28 | 0.28 | 86 | 1000.6 |
| 20260509211350 | 12 | 219 | 9.7 | 30.6 | 0.20 | 0.28 | 0.28 | 84 | 1001.2 |
| 20260509205847 | 13 | 200 | 9.7 | 22.5 | 0.71 | 0.05 | 0.08 | 80 | 1001.1 |
| 20260509204416 | 13 | 223 | 11.3 | 32.2 | 0.00 | 0.00 | 0.00 | 75 | 1000.8 |
| 20260509202943 | 14 | 173 | 11.3 | 32.2 | 0.00 | 0.00 | 0.00 | 75 | 1000.6 |
| 20260509201358 | 14 | 229 | 11.3 | 22.5 | 0.00 | 0.00 | 0.00 | 74 | 1000.6 |
| 20260509195914 | 15 | 161 | 9.7 | 20.9 | 0.00 | 0.00 | 0.00 | 73 | 1000.7 |
| 20260509194441 | 15 | 199 | 8.0 | 25.7 | 0.00 | 0.00 | 0.00 | 70 | 1000.6 |
| 20260509192905 | 15 | 194 | 9.7 | 25.7 | 0.00 | 0.00 | 0.00 | 71 | 1001.2 |
| 20260509191420 | 15 | 149 | 8.0 | 32.2 | 0.00 | 0.00 | 0.00 | 71 | 1001.5 |
| 20260509185928 | 15 | 194 | 8.0 | 22.5 | 0.00 | 0.00 | 0.00 | 70 | 1001.8 |
| 20260509184435 | 15 | 156 | 11.3 | 29.0 | 0.00 | 0.00 | 0.00 | 66 | 1001.5 |
| 20260509182953 | 15 | 191 | 6.4 | 24.1 | 0.00 | 0.00 | 0.00 | 67 | 1001.4 |
| 20260509181428 | 16 | 171 | 9.7 | 20.9 | 0.00 | 0.00 | 0.00 | 63 | 1001.6 |
| 20260509175956 | 16 | 237 | 9.7 | 24.1 | 0.00 | 0.00 | 0.00 | 63 | 1001.5 |
| 20260509174520 | 16 | 187 | 11.3 | 30.6 | 0.00 | 0.00 | 0.00 | 62 | 1001.9 |
| 20260509173047 | 16 | 204 | 11.3 | 24.1 | 0.00 | 0.00 | 0.00 | 64 | 1002.0 |
| 20260509171511 | 16 | 236 | 11.3 | 22.5 | 0.00 | 0.00 | 0.00 | 63 | 1002.1 |
| 20260509170017 | 16 | 248 | 8.0 | 20.9 | 0.00 | 0.00 | 0.00 | 67 | 1002.3 |
| 20260509164439 | 15 | 221 | 11.3 | 22.5 | 0.00 | 0.00 | 0.00 | 69 | 1002.9 |
| 20260509162911 | 15 | 246 | 9.7 | 22.5 | 0.00 | 0.00 | 0.00 | 70 | 1003.4 |
| 20260509155817 | 15 | 238 | 9.7 | 17.7 | 0.00 | 0.00 | 0.00 | 70 | 1003.3 |
| 20260509154335 | 15 | 140 | 6.4 | 22.5 | 0.00 | 0.00 | 0.00 | 72 | 1003.3 |
| 20260509152753 | 15 | 126 | 6.4 | 22.5 | 0.00 | 0.00 | 0.00 | 74 | 1003.5 |
| 20260509151310 | 13 | 233 | 6.4 | 22.5 | 0.00 | 0.00 | 0.00 | 82 | 1003.7 |
| 20260509145845 | 12 | 236 | 4.8 | 11.3 | 0.00 | 0.00 | 0.00 | 86 | 1003.9 |
| 20260509144354 | 12 | 184 | 3.2 | 9.7 | 0.00 | 0.00 | 0.00 | 87 | 1004.1 |
| 20260509142844 | 12 | 200 | 4.8 | 9.7 | 0.00 | 0.00 | 0.00 | 89 | 1004.1 |
| 20260509141329 | 11 | 163 | 3.2 | 12.9 | 0.00 | 0.00 | 0.00 | 89 | 1004.2 |
| 20260509135806 | 11 | 157 | 4.8 | 12.9 | 0.00 | 0.00 | 0.00 | 89 | 1004.3 |
| 20260509134304 | 11 | 205 | 8.0 | 16.1 | 0.00 | 0.00 | 0.00 | 89 | 1004.5 |
| 20260509132730 | 11 | 204 | 8.0 | 20.9 | 0.00 | 0.00 | 0.00 | 90 | 1004.4 |
| 20260509131153 | 11 | 267 | 4.8 | 11.3 | 0.00 | 0.00 | 0.00 | 90 | 1004.4 |
| 20260509122428 | 10 | 169 | 1.6 | 8.0 | 0.00 | 0.00 | 0.00 | 90 | 1004.8 |
| 20260509115237 | 8 | 181 | 3.2 | 8.0 | 0.00 | 0.00 | 0.00 | 90 | 1005.0 |
| 20260509113754 | 7 | 200 | 0.0 | 8.0 | 0.00 | 0.00 | 0.00 | 90 | 1005.0 |
| 20260509110540 | 5 | 124 | 0.0 | 0.0 | 0.00 | 0.00 | 0.00 | 89 | 1005.0 |
| 20260509105005 | 5 | 124 | 0.0 | 0.0 | 0.00 | 0.00 | 0.00 | 89 | 1004.9 |
| 20260509101903 | 5 | 124 | 0.0 | 0.0 | 0.00 | 0.00 | 0.00 | 88 | 1004.9 |
| 20260509100358 | 5 | 139 | 0.0 | 0.0 | 0.00 | 0.00 | 0.00 | 87 | 1004.9 |